Starlink 32833

operational
NORAD ID: 62873 Int'l Des: 2025-022 Owner: SPXS Country: US Constellation: starlink
LEOCIRCULAR

Starlink 32833について

説明を読み込み中...

リアルタイム位置

3D地球を読み込み中...

次回通過

高度履歴

Altitude vs Time

uPlot chart will show altitude changes over time

軌道要素

1 62873U 25022V 25259.31468851 .00026284 00000-0 89617-3 0 9992
2 62873 53.1567 219.4923 0001046 85.0932 275.0188 15.30209525 35206
Epoch: Sep 16, 2025 • Age: 20 hours

現在のステータス

高度 489.7 km
速度 7.62 km/s
衛星直下点 -42.17°S, 30.9°E
打ち上げ日 Feb 2, 2025
運用期間 0.6 years
タイプ internet

技術仕様

分類 Payload
質量 730.00 kg
乾燥質量 700.00 kg
総質量 730.00 kg
長さ 0.30 m
直径 4.10 m
スパン 29.00 m
形状 Box + pan
製造者 SPXS
バスタイプ Starlink V2M
フェーズステータス In Orbit
所有者/国 SPXS/US

大規模コンステレーション

Loading constellations...